Regional Weather Roundup
Issued by NWS

Home | Current Version | Previous Version | Graphics & Text | Print | Product List | Glossary On
Versions: 1 2 3 4 5 6 7 8 9 10 11 12 13 14 15 16 17 18 19 20 21 22 23 24 25 26 27 28 29 30 31 32 33 34 35 36 37 38 39 40 41 42 43 44 45 46 47 48 49 50
000
ASUS43 KIND 250859
RWRIN

WEATHER ROUNDUP FOR INDIANA
NATIONAL WEATHER SERVICE INDIANAPOLIS IN
500 AM EDT MON MAY 25 2015

NOTE: "FAIR" INDICATES FEW OR NO CLOUDS BELOW 12,000 FEET WITH NO
SIGNIFICANT WEATHER AND/OR OBSTRUCTIONS TO VISIBILITY.

* - STATION DOES NOT REPORT WEATHER SUCH AS PRECIPITATION OR FOG.

+ - STATION NOT QUALITY CONTROLLED BY THE NATIONAL WEATHER SERVICE.
    USE DATA WITH CAUTION...ESPECIALLY DEWPOINT AND RELATIVE
    HUMIDITY OBSERVATIONS.

INZ001>003-010>013-019-020-251000-
NORTHWEST INDIANA

CITY           SKY/WX    TMP DP  RH WIND       PRES   REMARKS
RENSSELAER +   CLOUDY    72  63  73 S10       29.91S

$$

LMZ046-743>745-251000-
SOUTHERN LAKE MICHIGAN

STATION/POSITION TIME  TEMP    WIND        PRES    WAVE
                       AIR SEA DIR/SP/G            HT
                 (UTC) (F)     (DEG/KT/KT) (MB)    (FT)
BURNS HARBOR     0800   72     190/ 16/ 25 1012.2F
MICHIGAN CITY    0800   74     150/ 17/ 23   N/A
5NW MICH CITY    0800   68 53  200/ 16/ 23   N/A     2

$$

INZ004-005-014>016-021>024-251000-
NORTH CENTRAL INDIANA

CITY           SKY/WX    TMP DP  RH WIND       PRES   REMARKS
GOSHEN         MOCLDY    70  58  65 S16       29.95F
SOUTH BEND     CLOUDY    73  59  61 S14       29.92F

$$

INZ006>009-017-018-025>027-251000-
NORTHEAST INDIANA

CITY           SKY/WX    TMP DP  RH WIND       PRES   REMARKS
ANGOLA *+      CLEAR     68  55  64 S7        29.98F
FORT WAYNE     CLOUDY    70  57  63 S14       30.00F

$$

INZ028-029-035-036-043>045-051>053-251000-
WEST CENTRAL INDIANA

CITY           SKY/WX    TMP DP  RH WIND       PRES   REMARKS
CRAWFORDSVL +  MOCLDY    71  58  64 S18G26    29.97S
GREENCASTLE +  CLOUDY    72  59  64 S14G21    30.01R
LAFAYETTE      CLOUDY    73  62  68 S14G25    29.93R
TERRE HAUTE    CLOUDY    73  64  73 S16G24    29.98R

$$

INZ030>032-037>040-046>048-054>057-064-065-251000-
CENTRAL INDIANA

CITY           SKY/WX    TMP DP  RH WIND       PRES   REMARKS
GREENWOOD *+   MOCLDY    72  57  60 S13       30.03S
INDIANAPOLIS   CLOUDY    73  60  63 S18       30.00R
-EAGLE CREEK   MOCLDY    73  61  65 S10G17    30.00S
KOKOMO *+      MOCLDY    70  57  64 S15       29.97S
MT COMFORT *+  MOCLDY    72  50  46 S12       30.02S
SHELBYVILLE    MOCLDY    74  59  59 S14       30.03R

$$

INZ033-034-041-042-049-050-058-059-251000-
EAST CENTRAL INDIANA

CITY           SKY/WX    TMP DP  RH WIND       PRES   REMARKS
MUNCIE         CLOUDY    73  58  59 S13G21    30.02S

$$

INZ060-061-067>069-081>083-085>088-251000-
SOUTHWEST INDIANA

CITY           SKY/WX    TMP DP  RH WIND       PRES   REMARKS
EVANSVILLE     LGT RAIN  70  66  87 S12       30.04S
HUNTINGBURG *+ CLOUDY    68  64  88 SW5       30.06R

$$

INZ062-063-066-070>080-084-089>092-251000-
SOUTH CENTRAL AND SOUTHEAST INDIANA

CITY           SKY/WX    TMP DP  RH WIND       PRES   REMARKS
BLOOMINGTON    RAIN      70  65  84 S17G24    30.04R
MADISON *+     CLOUDY    72  54  53 S12       30.10R
SEYMOUR +      CLOUDY    72  61  68 W8        30.06R

$$



USA.gov is the U.S. government's official web portal to all federal, state and local government web resources and services.